Location: Armidale
(30.5016°S, 151.6662°E)
Time: 21:49:00
(UTC+10:00)

Hubble Space Telescope - Pass Details

Date: 11 August 2020
Orbit: 536 x 540 km, 28.5° (Epoch: 20 September)

Event Time Altitude Azimuth Distance (km) Brightness Sun altitude
Rises 18:04:02 0° 272° (W) 2,685 6.4 -8.8°
Reaches altitude 10° 18:06:19 10° 275° (W) 1,793 5.1 -9.2°
Maximum altitude 18:10:26 64° 356° (N) 595 1.0 -10.1°
Enters shadow 18:14:05 13° 76° (ENE) 1,617 2.6 -10.9°
